Date String (YYYY-MM-DD hh:mm:ss) UTC,Instrument flags,absolute air pressure of the measurement (hPa),sample flow rate (lpm),inlet stack bypass flow (lpm),air temperature of the measurement (°C),ambient temperature measured by the external sensor (°C),aerosol sample conditioner tube jacket temperature (°C),OPC LED temperature (°C),internal box temperature (°C),relative humidity of the measurement (%),span deviation,mass concentration of particles derived from Lorenz-Mie calculation of OPC scattering (μg/m³),mass concentration of particles derived from Lorenz-Mie calculation of OPC scattering (μg/m³),mass concentration of particles derived from Lorenz-Mie calculation of OPC scattering (μg/m³)
DateTimeUTC,F1_M11,P_M11,Q1_M11,Q2_M11,T1_M11,T2_M11,T3_M11,T4_M11,T5_M11,U1_M11,ZSPAN_M11,X0_M11,X2_M11,X1_M11
2024-02-21 16:00:00,SystemResetWarning,0824.7,5.00,000.00,022.7,022.1,000.0,031.0,024.4,19.6,0000.0,0010.12,0004.05,0003.58
2024-02-21 16:01:00,SystemResetWarning,0824.7,5.00,000.00,022.7,022.1,000.0,031.0,024.5,19.3,0000.0,0009.96,0004.04,0003.59
2024-02-21 16:02:00,SystemResetWarning,0824.7,5.00,000.00,022.7,022.1,000.0,031.0,024.5,19.1,0000.0,0009.84,0004.05,0003.59
2024-02-21 16:03:00,SystemResetWarning,0824.7,5.00,000.00,022.7,022.1,000.0,031.0,024.5,19.2,0000.0,0010.51,0004.05,0003.59
2024-02-21 16:04:00,SystemResetWarning,0824.6,5.00,000.00,022.7,022.2,000.0,031.0,024.6,19.4,0000.0,0010.74,0004.04,0003.60
2024-02-21 16:05:00,SystemResetWarning,0824.6,5.00,000.00,022.7,022.2,000.0,031.0,024.6,19.6,0000.0,0010.89,0004.03,0003.61
2024-02-21 16:06:00,SystemResetWarning,0824.6,5.00,000.00,022.7,022.2,000.0,031.0,024.6,20.0,0000.0,0010.92,0004.08,0003.62
2024-02-21 16:07:00,SystemResetWarning,0824.7,5.00,000.00,022.7,022.2,000.0,031.1,024.6,19.9,0000.0,0010.65,0004.11,0003.64
2024-02-21 16:08:00,SystemResetWarning,0824.7,4.99,000.00,022.7,022.2,000.0,031.1,024.6,19.7,0000.0,0010.51,0004.13,0003.66
2024-02-21 16:09:00,SystemResetWarning,0824.6,5.00,000.00,022.8,022.2,000.0,031.1,024.6,19.4,0000.0,0010.66,0004.17,0003.68
2024-02-21 16:10:00,SystemResetWarning,0824.4,5.00,000.00,022.8,022.2,000.0,031.1,024.6,19.6,0000.0,0010.40,0004.16,0003.69
2024-02-21 16:11:00,SystemResetWarning,0824.4,5.00,000.00,022.8,022.3,000.0,031.1,024.6,19.5,0000.0,0010.90,0004.18,0003.69
2024-02-21 16:12:00,SystemResetWarning,0824.4,5.01,000.00,022.8,022.3,000.0,031.1,024.6,19.2,0000.0,0011.71,0004.22,0003.70
2024-02-21 16:13:00,SystemResetWarning,0824.5,5.00,000.00,022.8,022.3,000.0,031.1,024.6,19.2,0000.0,0011.49,0004.21,0003.70
2024-02-21 16:14:00,SystemResetWarning,0824.6,5.00,000.00,022.8,022.3,000.0,031.1,024.6,19.2,0000.0,0011.31,0004.19,0003.71
2024-02-21 16:15:00,SystemResetWarning,0824.6,5.00,000.00,022.8,022.3,000.0,031.1,024.6,19.2,0000.0,0011.08,0004.20,0003.71
2024-02-21 16:16:00,SystemResetWarning,0824.4,5.00,000.00,022.8,022.3,000.0,031.1,024.7,19.3,0000.0,0010.82,0004.19,0003.72
2024-02-21 16:17:00,SystemResetWarning,0824.4,5.01,000.00,022.8,022.3,000.0,031.1,024.6,19.7,0000.0,0010.83,0004.18,0003.73
2024-02-21 16:18:00,SystemResetWarning,0824.3,5.00,000.00,022.8,022.3,000.0,031.1,024.7,19.9,0000.0,0010.80,0004.16,0003.74
2024-02-21 16:19:00,SystemResetWarning,0824.4,5.00,000.00,022.8,022.3,000.0,031.2,024.7,19.7,0000.0,0010.68,0004.15,0003.75
2024-02-21 16:20:00,SystemResetWarning,0824.4,4.99,000.00,022.8,022.3,000.0,031.2,024.7,19.5,0000.0,0010.66,0004.16,0003.75
2024-02-21 16:21:00,SystemResetWarning,0824.4,4.99,000.00,022.8,022.3,000.0,031.2,024.7,19.9,0000.0,0010.94,0004.21,0003.76
2024-02-21 16:22:00,SystemResetWarning,0824.5,5.00,000.00,022.8,022.3,000.0,031.2,024.7,20.3,0000.0,0010.19,0004.18,0003.78
2024-02-21 16:23:00,SystemResetWarning,0824.7,5.01,000.00,022.8,022.3,000.0,031.2,024.7,20.3,0000.0,0009.87,0004.19,0003.80
2024-02-21 16:24:00,SystemResetWarning,0824.7,5.01,000.00,022.9,022.3,000.0,031.2,024.7,20.3,0000.0,0009.85,0004.22,0003.82
2024-02-21 16:25:00,SystemResetWarning,0824.7,5.01,000.00,022.9,022.3,000.0,031.2,024.8,20.3,0000.0,0010.16,0004.25,0003.84
2024-02-21 16:26:00,SystemResetWarning,0824.7,5.01,000.00,022.9,022.3,000.0,031.2,024.8,20.1,0000.0,0010.12,0004.28,0003.86
2024-02-21 16:27:00,SystemResetWarning,0824.6,5.00,000.00,022.9,022.3,000.0,031.2,024.8,20.2,0000.0,0010.08,0004.31,0003.88
2024-02-21 16:28:00,SystemResetWarning,0824.6,4.99,000.00,022.9,022.3,000.0,031.2,024.8,20.3,0000.0,0010.02,0004.32,0003.90
2024-02-21 16:29:00,SystemResetWarning,0824.5,5.00,000.00,022.9,022.3,000.0,031.2,024.8,20.2,0000.0,0010.05,0004.36,0003.91
2024-02-21 16:30:00,SystemResetWarning,0824.5,5.00,000.00,022.9,022.3,000.0,031.2,024.8,20.3,0000.0,0010.05,0004.41,0003.92
2024-02-21 16:31:00,SystemResetWarning,0824.5,5.00,000.00,022.9,022.3,000.0,031.3,024.8,20.2,0000.0,0009.60,0004.45,0003.94
2024-02-21 16:32:00,SystemResetWarning,0824.6,5.00,000.00,022.9,022.4,000.0,031.3,024.8,20.1,0000.0,0009.55,0004.43,0003.95
2024-02-21 16:33:00,SystemResetWarning,0824.6,5.00,000.00,022.9,022.4,000.0,031.3,024.8,20.0,0000.0,0009.64,0004.47,0003.98
2024-02-21 16:34:00,SystemResetWarning,0824.7,5.00,000.00,022.9,022.4,000.0,031.3,024.8,20.0,0000.0,0009.84,0004.45,0003.99
2024-02-21 16:35:00,SystemResetWarning,0824.7,5.00,000.00,022.9,022.4,000.0,031.3,024.8,20.0,0000.0,0009.96,0004.45,0004.00
2024-02-21 16:36:00,SystemResetWarning,0824.6,5.00,000.00,022.9,022.4,000.0,031.3,024.8,20.0,0000.0,0009.01,0004.46,0004.01
2024-02-21 16:37:00,SystemResetWarning,0824.6,5.00,000.00,023.0,022.4,000.0,031.3,024.8,20.2,0000.0,0008.98,0004.46,0004.02
2024-02-21 16:38:00,SystemResetWarning,0824.5,4.99,000.00,023.0,022.4,000.0,031.3,024.8,20.0,0000.0,0009.03,0004.46,0004.02
2024-02-21 16:39:00,SystemResetWarning,0824.4,5.00,000.00,023.0,022.4,000.0,031.3,024.8,20.0,0000.0,0009.47,0004.49,0004.03
2024-02-21 16:40:00,SystemResetWarning,0824.4,5.00,000.00,023.0,022.4,000.0,031.3,024.9,20.2,0000.0,0009.51,0004.50,0004.03
2024-02-21 16:41:00,SystemResetWarning,0824.4,4.99,000.00,023.0,022.4,000.0,031.3,024.8,20.0,0000.0,0009.55,0004.49,0004.03
2024-02-21 16:42:00,SystemResetWarning,0824.4,5.00,000.00,023.0,022.4,000.0,031.3,024.8,19.8,0000.0,0009.45,0004.46,0004.02
2024-02-21 16:43:00,SystemResetWarning,0824.3,5.00,000.00,023.0,022.4,000.0,031.3,024.8,19.9,0000.0,0008.89,0004.44,0004.02
2024-02-21 16:44:00,SystemResetWarning,0824.3,5.01,000.00,023.0,022.4,000.0,031.3,024.9,19.9,0000.0,0009.64,0004.41,0004.00
2024-02-21 16:45:00,SystemResetWarning,0824.3,5.01,000.00,023.0,022.4,000.0,031.4,024.9,19.7,0000.0,0009.79,0004.41,0003.99
2024-02-21 16:46:00,SystemResetWarning,0824.3,5.00,000.00,023.0,022.4,000.0,031.4,024.8,19.8,0000.0,0008.79,0004.38,0003.97
2024-02-21 16:47:00,SystemResetWarning,0824.4,4.99,000.00,023.0,022.5,000.0,031.4,024.8,19.7,0000.0,0008.66,0004.37,0003.96
2024-02-21 16:48:00,SystemResetWarning,0824.4,4.99,000.00,023.0,022.5,000.0,031.4,024.8,19.5,0000.0,0008.87,0004.33,0003.94
2024-02-21 16:49:00,SystemResetWarning,0824.4,5.00,000.00,023.0,022.5,000.0,031.4,024.9,19.2,0000.0,0008.86,0004.31,0003.93
2024-02-21 16:50:00,SystemResetWarning,0824.4,5.01,000.00,023.1,022.5,000.0,031.4,024.9,19.4,0000.0,0008.39,0004.25,0003.90
2024-02-21 16:51:00,SystemResetWarning,0824.3,5.01,000.00,023.1,022.5,000.0,031.4,024.9,19.5,0000.0,0008.40,0004.23,0003.88
2024-02-21 16:52:00,SystemResetWarning,0824.3,5.01,000.00,023.1,022.5,000.0,031.4,024.9,18.9,0000.0,0008.32,0004.21,0003.88
2024-02-21 16:53:00,SystemResetWarning,0824.3,5.00,000.00,023.1,022.5,000.0,031.4,024.9,18.8,0000.0,0008.24,0004.19,0003.88
2024-02-21 16:54:00,SystemResetWarning,0824.3,4.99,000.00,023.1,022.6,000.0,031.4,024.9,19.2,0000.0,0008.45,0004.18,0003.87
2024-02-21 16:55:00,SystemResetWarning,0824.4,4.99,000.00,023.1,022.6,000.0,031.4,024.9,19.1,0000.0,0008.28,0004.18,0003.87
2024-02-21 16:56:00,SystemResetWarning,0824.3,5.00,000.00,023.1,022.6,000.0,031.4,025.0,19.0,0000.0,0008.23,0004.16,0003.88
2024-02-21 16:57:00,SystemResetWarning,0824.1,5.00,000.00,023.1,022.6,000.0,031.4,025.0,18.3,0000.0,0008.87,0004.18,0003.89
2024-02-21 16:58:00,SystemResetWarning,0824.1,5.00,000.00,023.1,022.6,000.0,031.5,025.0,18.6,0000.0,0009.82,0004.19,0003.89
2024-02-21 16:59:00,SystemResetWarning,0824.1,5.01,000.00,023.1,022.6,000.0,031.5,025.0,18.7,0000.0,0009.59,0004.18,0003.89
